Temp_Advection
nan nan nan nan nan nan nan nan nan nan nan nan nan nan nan nan nan nan nan nan nan nan nan nan nan nan nan
nan -0 -1 -1 -0 0 -0 -0 -1 -0 1 0 0 0 0 1 2 1 -0 -0 -0 -0 -0 -1 -1 -1 nan
nan -0 -0 -1 0 -0 -1 -1 -2 -1 -0 -0 0 0 0 0 1 1 1 1 0 0 -0 -1 -1 -1 nan
nan 1 -0 -0 -0 -0 -0 -0 -1 -2 -1 -1 -1 -1 0 0 0 0 1 1 1 1 1 0 -0 -0 nan
nan -0 0 -0 0 0 -0 -0 -1 -1 -1 -1 -1 -2 -2 -1 -0 0 0 0 1 1 0 -1 -0 -0 nan
nan -0 -0 0 0 0 -0 -0 -1 -1 0 -1 -0 -1 -2 -2 -1 0 0 0 2 1 -0 -0 -0 -0 nan
nan 0 0 0 0 -0 0 -0 -1 -1 -0 -1 -0 0 -1 -1 -2 -0 0 0 0 1 1 -0 -0 -0 nan
nan 0 0 0 0 0 0 -0 -0 0 1 -1 -1 0 -1 -1 -1 -1 -0 0 0 1 1 0 -0 -0 nan
nan 0 0 0 1 1 1 0 -1 -1 1 0 -1 -0 -2 -1 -0 -1 -1 -0 0 0 1 1 1 -1 nan
nan -0 0 0 0 0 0 0 1 -1 0 -0 -1 0 -2 -3 -1 -1 -0 0 -0 -0 -0 1 2 2 nan
nan -0 -0 0 0 0 0 0 0 -0 1 2 -1 1 1 -3 -3 -1 -1 0 0 0 -0 -1 0 1 nan
nan -0 0 0 0 0 0 1 1 -0 0 1 1 0 1 0 -2 -1 -0 0 1 0 0 0 -0 0 nan
nan -0 -0 -0 -0 -0 0 0 0 1 0 1 1 0 1 0 -2 -1 -0 -2 0 0 0 0 0 -0 nan
nan -0 -0 -0 -0 -0 -0 -0 -1 -0 0 1 1 -0 -0 0 0 -2 1 -1 -2 0 -0 -0 -0 0 nan
nan -0 -0 -0 -0 -0 -1 -1 -1 -1 -0 0 1 1 -0 -1 -1 -0 -1 0 -1 0 0 -1 -1 -0 nan
nan -0 -0 -0 -0 0 0 -1 -1 -1 -1 -1 -0 0 0 -0 -1 -0 -0 -1 -1 0 1 -0 -1 1 nan
nan nan nan nan nan nan nan nan nan nan nan nan nan nan nan nan nan nan nan nan nan nan nan nan nan nan nan
Wind_Speed
22 19 22 25 26 28 29 30 30 31 30 29 27 25 25 25 25 25 26 26 27 27 28 28 29 30 31
16 22 23 24 26 28 28 29 29 28 26 23 22 24 23 24 25 25 26 27 28 28 29 30 31 32 33
20 23 26 24 24 22 23 25 24 24 24 23 22 21 22 25 25 26 28 28 29 29 30 31 31 32 33
18 17 18 15 19 19 20 20 20 22 23 21 21 20 21 23 24 26 27 27 27 29 29 30 31 32 32
13 14 16 15 16 18 19 19 21 22 19 18 22 24 25 25 26 26 27 29 30 29 29 30 31 32 32
15 15 16 17 16 16 19 19 22 21 15 24 22 24 26 26 27 26 26 27 28 29 29 29 29 30 31
17 17 18 16 19 19 18 22 25 23 22 24 25 25 24 26 30 30 24 20 21 24 27 28 28 29 29
19 18 17 15 17 19 21 22 22 23 20 25 25 24 26 30 35 27 22 24 23 23 25 27 28 30 31
17 16 16 17 17 19 19 19 24 28 26 18 25 26 33 36 29 28 34 29 28 27 26 27 29 29 31
12 12 13 14 15 17 18 22 24 26 17 22 33 28 22 35 26 35 32 34 30 30 27 26 25 27 30
13 13 13 14 14 15 18 22 25 29 31 24 32 33 28 33 39 37 35 36 34 33 30 24 18 21 26
13 13 15 15 13 17 20 24 26 28 28 24 29 27 28 35 38 39 38 36 34 29 24 27 27 26 26
13 14 16 15 16 20 23 23 27 26 22 21 23 24 27 32 37 39 38 36 25 27 28 30 30 28 30
15 16 16 15 18 22 25 26 30 28 25 23 23 24 26 28 33 38 33 32 34 31 32 33 31 28 27
17 17 16 17 20 24 25 27 29 31 31 25 26 26 27 26 31 32 33 35 33 34 34 37 33 30 28
17 17 16 18 23 25 25 28 30 30 30 28 29 31 30 28 27 32 34 36 36 34 31 32 35 31 29
18 16 16 20 25 27 28 31 29 28 29 30 29 28 32 33 31 26 32 35 32 33 29 30 33 33 30
Wind_Direction
268 284 288 281 286 289 294 296 299 302 306 301 301 300 296 293 290 288 287 285 283 281 281 279 278 277 276
294 281 278 279 283 289 292 296 298 303 301 302 303 300 299 297 292 290 287 284 282 281 280 279 278 277 275
277 283 287 294 299 295 297 300 303 309 308 310 304 302 299 295 295 293 289 286 284 281 280 278 277 276 275
288 289 290 295 293 300 298 299 305 309 309 310 309 310 306 308 303 298 296 294 291 287 282 279 277 275 273
290 285 287 294 292 294 299 306 308 307 311 312 312 307 309 308 301 302 300 297 291 286 283 280 278 276 274
282 289 293 291 294 297 301 305 309 317 304 304 307 302 307 307 309 308 304 296 289 286 282 280 279 276 275
285 288 288 290 288 302 298 300 299 302 298 299 315 307 311 304 310 314 309 300 296 293 285 282 280 276 273
290 290 290 295 290 296 298 298 298 304 301 297 314 300 306 306 310 311 313 309 304 298 290 285 280 275 271
299 297 295 294 296 297 300 296 303 312 313 295 314 303 308 312 318 319 322 320 316 307 295 287 283 279 274
308 304 303 305 304 301 302 304 307 312 311 308 312 315 311 314 310 313 315 318 315 311 306 300 289 278 272
313 313 312 312 307 304 308 309 307 304 321 311 304 305 295 298 310 312 315 319 314 311 302 297 291 286 284
311 315 313 313 307 309 311 308 306 309 317 310 306 309 303 302 304 317 316 315 314 313 312 307 300 292 281
316 319 318 316 314 314 316 315 313 320 324 321 312 310 305 304 305 310 314 319 314 316 317 315 309 303 296
319 320 320 318 322 323 322 323 320 325 332 328 322 315 311 311 307 307 316 307 319 320 319 313 310 309 304
321 321 319 317 322 326 326 327 326 326 326 330 328 323 315 315 310 310 315 316 321 321 319 314 314 314 311
322 319 316 317 323 328 328 327 324 324 324 328 329 329 323 310 310 309 311 311 316 312 309 305 310 316 312
323 317 314 320 326 328 329 329 326 321 322 326 320 315 312 305 311 305 302 310 312 312 313 310 308 316 317
Height
1492 1492 1496 1495 1490 1487 1484 1481 1477 1474 1472 1466 1462 1459 1457 1455 1453 1451 1450 1449 1448 1446 1445 1445 1444 1444 1443
1488 1491 1492 1489 1482 1480 1477 1475 1470 1468 1463 1460 1456 1452 1450 1448 1445 1443 1442 1441 1439 1438 1437 1436 1435 1435 1434
1482 1484 1485 1481 1476 1474 1470 1467 1463 1460 1456 1453 1450 1446 1445 1442 1438 1435 1433 1430 1429 1427 1426 1426 1425 1424 1424
1478 1477 1479 1476 1474 1470 1466 1462 1458 1455 1451 1447 1444 1440 1439 1436 1432 1428 1425 1422 1420 1418 1416 1415 1414 1413 1412
1474 1476 1475 1473 1471 1467 1461 1456 1453 1450 1446 1443 1439 1436 1433 1429 1425 1421 1418 1414 1411 1409 1408 1407 1405 1404 1403
1470 1469 1468 1467 1465 1461 1456 1453 1448 1446 1443 1439 1436 1431 1426 1421 1418 1414 1410 1406 1402 1399 1398 1397 1396 1395 1394
1464 1463 1462 1460 1457 1454 1452 1448 1444 1441 1438 1433 1430 1423 1420 1415 1411 1407 1402 1399 1396 1393 1390 1388 1387 1386 1385
1458 1457 1456 1454 1453 1450 1447 1442 1439 1436 1433 1426 1422 1418 1413 1408 1404 1399 1396 1392 1389 1385 1382 1380 1378 1377 1375
1453 1451 1450 1449 1447 1444 1441 1438 1432 1428 1425 1421 1416 1411 1405 1398 1394 1390 1387 1383 1380 1377 1373 1370 1368 1366 1363
1449 1448 1446 1444 1442 1440 1437 1433 1429 1423 1422 1415 1409 1406 1395 1390 1388 1384 1380 1376 1371 1367 1364 1361 1358 1355 1351
1445 1444 1443 1441 1439 1437 1433 1429 1425 1420 1416 1411 1404 1401 1396 1384 1377 1376 1373 1367 1362 1358 1354 1351 1349 1347 1342
1442 1441 1439 1437 1435 1432 1429 1425 1420 1415 1411 1407 1398 1394 1389 1381 1373 1367 1364 1360 1354 1349 1346 1344 1341 1337 1335
1439 1437 1434 1432 1430 1426 1423 1418 1413 1409 1405 1400 1394 1388 1383 1376 1368 1360 1356 1350 1347 1343 1338 1335 1331 1329 1324
1436 1433 1430 1427 1425 1421 1416 1412 1405 1401 1398 1394 1388 1382 1377 1371 1363 1354 1351 1347 1340 1336 1332 1327 1323 1320 1316
1432 1429 1426 1423 1421 1417 1412 1407 1401 1394 1389 1387 1381 1376 1370 1365 1356 1351 1344 1339 1335 1329 1325 1318 1314 1311 1307
1429 1425 1423 1420 1416 1413 1408 1404 1397 1391 1385 1380 1374 1367 1362 1358 1354 1343 1339 1334 1329 1324 1320 1313 1305 1303 1299
1425 1422 1419 1416 1412 1408 1403 1398 1392 1386 1381 1375 1370 1365 1357 1349 1347 1345 1336 1329 1323 1316 1312 1307 1300 1294 1293